Location: Br�ttisellen
(47.4227°N, 8.6287°E)
Time: 23:38:11
(UTC+00:00)

CZ-2C R/B - Pass Details

Date: 09 April 2020
Orbit: 785 x 870 km, 98.3° (Epoch: 30 May)

Event Time Altitude Azimuth Distance (km) Brightness Sun altitude
Rises 19:16:33 0° 19° (NNE) 3,288 5.9 -11.9°
Reaches altitude 10° 19:18:59 10° 26° (NNE) 2,356 5.0 -12.3°
Maximum altitude 19:23:56 44° 98° (E) 1,080 2.9 -13.0°
Drops below altitude 10° 19:28:54 10° 171° (S) 2,361 4.7 -13.8°
Sets 19:31:20 0° 177° (S) 3,297 5.5 -14.1°
